RH
51 58 66 71 74 77 76 59 54 67 71 69 71 70 73 79 80 81 81 80 81 81 83 84 85 87 88 89 90 89 89 89 89 91 93 92 91 89 86 81 77 72 71 73 75 75 73 71 70 68 67 66 65 66 68 69 72 72 73 74 74 76 78 80 85 83 75 71 69 67 62 58 57 57 59 60 61 61 61 61 62 60 55 53 52
57 64 71 74 78 81 71 58 62 73 71 70 73 74 79 84 83 83 83 82 82 82 83 85 87 89 91 91 91 89 89 89 90 90 91 91 92 94 94 92 88 82 77 75 73 74 76 75 74 71 69 68 67 68 70 72 75 76 76 78 79 79 80 82 84 85 82 76 73 72 68 63 62 60 59 60 61 63 64 65 65 62 57 55 54
60 68 74 77 83 81 67 61 69 74 73 75 78 80 83 85 84 84 84 85 85 84 86 88 89 91 92 92 92 91 90 90 90 90 89 91 93 93 93 94 95 93 89 85 79 74 75 76 77 75 72 71 70 70 73 74 77 80 80 80 82 83 83 83 84 85 84 80 76 74 71 68 66 63 61 61 62 65 69 69 66 63 59 58 57
63 71 76 81 86 78 65 68 75 76 78 82 84 85 86 86 87 87 87 89 89 90 92 93 94 95 93 94 93 92 93 92 92 92 90 90 92 90 87 86 89 89 87 88 86 83 82 80 77 77 76 76 74 73 75 77 79 82 83 83 84 86 86 86 87 86 85 84 80 76 73 70 67 65 64 64 66 70 72 72 68 64 61 60 60
68 75 80 88 88 76 71 77 81 79 81 83 85 86 88 88 91 92 93 95 95 96 97 96 97 97 95 95 95 95 96 95 95 96 94 94 96 96 95 92 90 87 83 82 81 84 90 91 86 81 78 76 75 77 79 80 82 84 86 86 86 87 87 87 88 88 87 88 84 78 75 73 71 68 66 68 72 75 77 75 71 67 64 62 62
75 79 85 93 87 77 79 83 83 82 84 87 89 90 92 93 95 96 95 98 99 98 99 98 98 98 97 97 98 98 100 98 98 98 98 99 99 99 100 100 98 96 93 90 87 87 87 87 87 87 85 83 81 82 82 82 84 86 87 88 87 87 88 88 89 89 90 90 87 82 79 76 74 72 71 72 74 77 79 78 75 71 67 64 64
80 85 91 94 85 80 83 83 84 87 88 92 93 94 96 97 97 99 98 100 101 100 101 100 99 100 100 100 100 100 101 101 100 99 99 100 101 100 100 100 100 99 96 93 93 94 86 77 74 76 79 82 83 84 86 86 86 87 88 89 89 90 90 91 91 91 92 91 88 86 84 81 78 75 74 74 75 79 80 81 80 75 70 67 65
84 89 95 92 86 84 84 84 87 91 92 95 97 97 99 99 99 100 101 102 103 102 101 101 100 101 101 102 102 101 102 103 101 100 100 100 101 101 100 100 100 99 97 95 95 97 94 87 80 75 73 73 76 84 89 90 89 90 90 90 91 92 93 94 94 94 94 92 89 87 87 85 81 78 76 78 83 86 84 82 82 77 73 71 67
86 92 95 92 88 86 86 87 90 93 96 97 99 100 101 101 101 102 103 103 102 100 99 100 100 100 100 101 101 101 102 102 102 102 102 102 101 101 100 100 100 99 98 99 99 98 97 97 94 89 85 83 81 86 92 92 90 91 92 92 93 94 95 96 96 97 97 94 90 89 89 88 84 80 78 82 87 88 82 80 81 78 74 73 69
87 91 95 92 89 88 88 91 93 96 99 99 101 102 101 102 103 102 102 101 98 98 98 99 100 100 100 100 99 101 101 100 102 103 101 101 100 101 101 99 100 99 96 96 98 98 96 97 97 93 92 92 88 86 88 89 89 89 89 90 92 96 98 98 97 97 97 94 90 91 90 87 84 80 78 80 82 83 82 82 83 80 77 80 77
89 90 94 91 89 89 91 93 96 97 99 100 100 101 101 102 101 99 99 98 96 98 99 100 100 99 100 100 100 101 100 99 102 102 100 100 100 101 101 99 99 99 98 97 98 96 94 94 94 92 91 93 93 87 82 79 81 84 88 89 90 91 94 97 98 97 96 93 90 90 90 87 83 79 77 79 80 82 83 83 85 83 82 89 85
91 91 93 90 88 91 94 96 99 99 100 101 100 101 101 101 99 99 98 97 97 99 100 100 100 99 99 100 100 100 98 99 103 101 99 100 100 100 101 100 100 99 98 98 98 97 97 95 95 93 90 92 95 92 85 79 77 78 83 89 92 91 90 90 92 93 96 95 92 91 89 86 83 80 79 80 81 83 84 84 86 86 84 90 87
93 93 92 90 90 94 97 99 101 100 101 101 101 102 102 100 99 99 98 98 100 101 101 100 99 99 99 99 99 98 96 98 103 102 100 100 100 101 100 99 100 100 100 99 97 97 98 97 97 97 94 92 95 96 94 90 85 81 81 87 92 93 92 91 89 86 85 89 92 91 87 84 84 82 79 79 81 85 89 90 89 86 85 89 83
95 93 92 92 93 96 99 101 102 102 102 102 102 102 101 100 99 99 99 101 102 102 101 100 99 99 98 97 98 97 95 98 103 101 100 101 100 100 101 100 100 101 99 96 96 97 95 94 97 99 98 97 97 98 99 96 93 90 88 92 94 92 93 96 96 90 83 83 87 87 83 81 81 80 77 79 83 86 89 90 88 87 86 83 75
95 93 93 94 96 98 101 103 103 102 102 103 103 102 101 101 100 100 101 102 103 103 101 100 100 98 96 96 97 97 95 99 104 100 97 99 98 97 100 100 98 97 94 92 94 95 91 92 99 100 100 100 97 97 99 98 98 97 95 95 94 91 91 91 94 96 93 91 93 90 85 83 83 81 79 81 84 84 84 84 82 83 83 79 75
94 94 95 97 99 100 102 104 104 103 104 104 103 101 101 102 100 100 102 102 102 102 100 100 100 97 96 96 98 97 92 94 102 97 87 86 91 95 100 99 96 95 94 92 95 95 87 88 98 101 100 100 97 97 99 99 99 100 99 98 94 92 88 81 80 90 95 94 95 93 91 90 90 90 87 86 84 84 87 89 85 84 85 84 84
94 96 98 100 101 101 103 104 104 104 104 104 103 102 102 102 101 101 103 103 102 102 101 100 99 98 97 95 95 96 89 90 100 99 84 78 85 96 102 101 99 98 95 93 94 95 86 82 92 101 100 100 100 98 97 98 100 101 101 100 98 96 89 76 71 82 91 93 92 90 92 93 93 96 96 93 89 88 94 98 92 87 89 90 92
97 100 102 101 102 102 103 104 104 104 105 104 104 104 103 103 101 101 103 103 103 102 100 101 99 97 95 92 92 96 93 90 97 102 93 78 78 91 100 101 100 100 98 95 93 93 87 81 89 100 100 99 102 99 94 94 99 101 100 100 100 100 93 81 74 75 80 87 91 92 95 94 91 92 94 94 96 96 95 96 92 90 92 92 93
100 103 102 101 102 102 103 103 103 104 104 104 104 104 104 102 101 102 103 102 102 101 100 100 98 93 91 89 89 93 93 87 88 99 101 84 74 86 99 102 102 101 99 97 95 94 90 82 83 92 98 98 97 96 94 94 99 102 99 99 103 100 90 84 82 77 73 78 84 86 90 95 96 97 95 94 100 99 89 88 91 91 91 91 91
102 104 102 101 101 101 101 102 102 103 104 104 105 104 103 102 102 102 102 101 101 101 99 98 96 92 88 88 89 89 90 86 84 95 104 95 82 85 96 101 102 101 99 98 97 95 92 84 78 82 90 92 88 87 90 90 94 99 99 100 102 95 85 85 86 81 77 79 80 79 80 84 89 96 96 95 100 100 90 86 89 86 83 88 93
103 102 101 101 100 100 100 101 102 103 103 104 105 103 101 102 102 101 101 100 100 100 97 95 95 92 89 88 88 86 85 85 87 94 102 99 90 88 94 99 101 101 101 100 98 96 94 90 83 77 81 89 89 89 90 87 88 97 101 99 93 86 86 89 87 86 89 89 87 87 87 83 79 83 88 89 92 99 98 90 84 79 75 81 91
103 103 102 101 101 101 100 100 101 102 103 104 104 103 101 101 101 100 100 100 100 98 96 94 94 94 91 88 86 85 84 85 89 94 96 96 93 88 86 91 97 100 101 101 100 98 95 91 84 75 76 83 85 86 88 86 87 93 97 95 91 91 94 94 89 91 98 98 96 97 98 95 88 82 82 83 85 93 101 97 87 80 76 75 82
103 104 102 101 101 101 101 101 101 102 103 103 103 103 102 100 100 100 100 100 100 98 96 95 96 96 93 88 85 85 86 87 89 93 94 96 96 86 78 82 89 93 96 101 101 99 96 93 89 85 82 82 81 81 82 82 85 89 89 88 91 93 95 96 96 97 100 100 101 101 101 101 97 86 81 81 81 84 95 101 97 92 89 88 88
104 103 100 99 100 100 100 101 101 101 102 103 103 104 103 101 101 100 100 100 100 100 98 97 99 98 94 91 89 88 88 88 89 93 93 94 96 89 78 80 85 84 88 97 100 99 98 96 93 91 87 82 81 82 81 79 82 84 82 83 88 90 92 98 101 100 100 101 101 100 99 101 100 91 80 76 76 77 84 94 99 99 98 97 98
103 101 99 98 98 99 100 101 101 101 102 102 103 104 103 102 102 101 100 100 100 100 100 98 98 98 96 95 94 91 90 90 90 90 90 92 96 93 84 85 91 92 92 94 92 92 95 93 89 88 87 85 83 83 83 83 83 82 79 81 86 89 93 98 101 100 100 101 100 99 98 96 96 92 83 77 78 79 80 87 94 96 97 98 99
102 101 99 96 96 98 100 101 101 102 102 101 102 104 103 102 103 102 101 101 99 100 100 99 98 98 96 96 96 93 92 93 91 89 90 93 98 96 89 90 97 100 100 98 93 92 96 96 92 89 88 87 87 87 86 86 86 87 86 86 88 91 93 95 99 101 100 99 98 97 95 93 94 95 93 88 83 78 78 84 90 92 96 99 100
101 100 99 97 96 98 101 103 103 102 101 101 102 103 102 101 102 102 101 100 99 100 100 99 99 99 97 97 98 97 96 96 94 92 94 97 99 98 94 95 99 99 99 101 100 100 101 101 98 94 90 88 90 92 91 90 91 93 90 85 87 93 95 93 95 99 99 97 95 94 93 94 97 99 99 97 90 82 81 88 91 92 96 99 100
100 100 99 98 98 99 101 104 103 101 101 101 102 103 102 101 101 101 101 100 99 99 99 100 100 99 99 100 101 100 98 97 97 98 98 99 100 100 98 99 100 100 100 100 98 98 99 100 99 97 91 89 89 90 91 94 97 97 93 85 82 87 94 95 95 97 98 96 94 95 96 98 100 100 100 100 98 93 91 94 97 98 99 100 100
100 100 100 99 98 99 102 103 102 102 101 101 101 100 100 101 101 100 100 100 100 99 100 102 102 101 101 101 102 103 101 99 99 99 97 97 100 101 100 101 100 100 101 100 95 94 96 98 99 97 92 90 92 93 95 98 99 99 99 95 89 89 94 98 99 100 100 99 97 97 100 101 100 100 100 100 100 98 96 98 100 100 100 100 100
100 100 100 100 100 102 103 103 103 104 102 101 101 98 96 97 100 101 101 100 99 100 99 98 99 102 102 100 101 103 103 101 100 98 96 97 100 100 100 101 100 100 99 95 92 94 98 99 100 100 98 97 99 101 100 100 99 99 100 100 98 97 98 99 100 100 100 100 99 98 99 101 100 100 100 100 100 99 99 100 101 100 100 100 100
100 100 100 101 102 104 105 103 103 104 102 100 100 100 97 94 94 96 100 101 101 98 92 88 93 101 103 101 101 102 101 100 100 97 94 95 99 101 100 100 101 99 94 88 90 97 101 100 99 100 100 100 101 101 101 100 100 100 100 100 100 101 100 100 100 100 99 100 100 99 99 100 100 100 100 100 100 100 100 100 100 100 100 100 99
100 100 101 101 102 104 106 104 103 102 101 100 100 100 100 98 92 88 91 98 102 102 96 92 95 99 100 99 99 101 101 101 100 97 95 95 99 101 100 100 101 96 84 82 92 100 100 99 100 100 100 100 101 101 102 101 101 101 101 101 100 100 100 100 99 100 100 99 100 101 101 100 99 100 100 99 100 100 100 100 100 100 100 100 99
100 100 101 101 102 104 106 104 102 101 100 100 101 100 100 101 99 93 89 91 95 97 98 99 101 100 98 97 97 98 99 100 99 99 98 98 100 102 101 102 103 97 87 88 98 101 99 100 100 99 100 101 101 102 103 102 102 103 102 102 101 101 101 100 100 100 100 100 100 100 100 100 100 100 100 100 100 100 99 100 100 100 100 100 100
100 100 102 104 106 107 107 103 101 100 100 100 101 100 99 100 101 100 98 95 92 90 89 93 97 99 101 100 99 98 99 99 99 100 100 99 102 104 101 96 94 95 95 98 101 100 99 100 100 99 100 101 103 104 104 103 103 102 100 98 98 98 97 97 98 100 100 100 101 100 100 100 100 100 100 100 100 100 100 100 100 100 100 100 100
100 101 104 107 107 108 107 103 100 100 102 102 101 100 100 100 100 100 100 100 99 97 94 92 93 97 101 101 100 100 99 99 100 100 99 100 102 101 97 92 90 93 97 99 100 100 100 100 100 100 100 100 102 104 104 104 104 102 99 96 94 92 91 91 92 94 95 96 98 99 100 100 100 101 101 100 99 100 100 99 100 100 99 100 100
100 102 106 107 106 107 106 103 100 101 102 103 101 99 100 100 100 100 100 99 100 101 100 97 95 96 98 98 99 100 99 99 101 101 99 101 103 100 97 98 99 99 99 100 100 100 100 99 100 100 100 100 101 102 103 104 104 102 100 99 95 92 90 89 88 89 89 89 91 93 93 94 96 97 98 99 99 100 100 101 101 100 100 100 100
99 101 105 105 105 107 105 101 100 101 103 104 102 100 100 100 99 100 100 100 100 100 100 99 98 97 96 95 97 100 100 99 100 101 100 101 102 100 99 100 100 99 100 100 100 100 100 100 100 100 100 100 100 100 101 102 102 101 101 101 99 96 94 92 90 88 87 87 88 88 88 89 90 90 89 91 93 94 95 97 98 98 98 97 96
100 100 102 104 105 106 103 100 100 101 104 106 103 100 99 100 100 100 100 100 100 100 100 100 100 100 100 98 98 101 100 97 96 98 98 99 100 100 100 100 100 100 100 100 99 100 100 100 100 100 100 100 100 102 102 101 101 102 102 102 101 99 96 92 90 90 90 91 91 91 90 89 89 88 87 88 89 89 90 91 92 94 95 95 95
100 100 100 102 104 103 101 100 100 100 103 105 103 100 100 100 100 100 100 100 100 100 100 100 100 100 101 101 100 100 100 98 98 98 98 99 99 100 100 100 100 100 100 100 100 100 100 100 100 100 100 99 100 103 105 103 101 101 102 103 103 101 98 95 93 93 95 96 96 96 95 94 93 91 91 91 92 92 92 92 93 94 96 97 99
100 100 100 100 101 101 100 100 100 100 101 102 101 100 101 100 99 100 100 100 100 100 100 100 101 101 101 100 100 100 100 100 100 100 100 99 100 100 100 100 100 100 100 100 100 100 100 100 100 100 100 100 100 101 104 104 101 100 102 104 104 103 102 102 101 100 101 101 101 101 100 100 99 97 97 98 99 99 99 99 98 98 98 99 100
100 101 100 100 100 100 100 100 100 99 100 101 101 101 100 100 100 100 100 100 100 100 100 100 100 100 100 100 99 100 100 100 100 100 100 100 100 100 100 100 100 100 100 100 100 100 100 100 100 100 100 100 100 99 101 102 102 101 102 104 105 105 105 104 104 104 104 104 104 103 101 100 100 99 98 100 101 101 101 101 101 102 102 101 100
101 100 100 100 100 100 100 100 100 100 100 100 100 100 100 100 100 100 101 101 100 99 100 100 100 100 101 100 100 100 100 100 100 100 100 100 100 100 100 100 100 100 100 100 100 100 100 100 101 101 100 100 100 100 100 100 101 101 102 103 103 103 103 103 103 104 104 103 103 104 102 100 99 98 98 99 99 99 100 101 101 102 103 102 102
100 100 100 100 100 100 100 100 99 100 100 100 100 100 100 100 100 100 101 102 101 100 99 100 100 101 101 100 100 101 101 100 100 100 100 100 100 100 100 100 100 100 100 100 100 100 99 100 102 103 101 99 100 100 100 100 100 101 102 103 103 103 103 102 103 104 104 102 102 103 103 101 101 100 100 100 100 100 100 101 102 103 102 102 102
100 100 100 100 100 100 100 100 100 100 100 100 100 100 100 100 101 100 100 100 100 100 100 100 100 100 100 100 100 101 100 100 100 100 100 100 100 100 100 100 100 100 100 100 100 102 101 100 101 102 101 99 99 100 100 100 100 100 101 102 102 103 102 102 102 103 103 101 101 102 102 102 102 102 102 101 101 101 100 100 101 103 104 103 103
100 100 100 100 100 100 100 100 100 100 99 100 101 100 100 101 102 102 101 100 100 100 100 100 100 100 100 100 100 100 100 100 100 100 100 100 100 100 100 100 100 100 100 99 100 102 103 102 101 101 101 100 99 99 100 100 100 99 100 101 101 102 101 100 100 101 103 104 103 102 101 101 102 103 103 103 103 102 101 101 102 103 104 103 102
100 100 100 100 100 100 100 100 100 100 100 101 102 101 100 101 103 104 103 101 100 100 100 100 100 100 100 100 100 100 100 100 100 100 100 100 100 100 100 100 100 100 100 100 100 100 102 104 103 101 101 101 101 100 99 100 101 100 99 100 101 102 103 102 101 102 104 106 105 104 103 102 102 102 103 104 103 101 101 102 102 102 103 103 102
99 99 100 100 100 100 100 100 100 101 101 100 100 100 100 101 103 105 103 100 100 101 101 100 100 100 100 100 100 100 100 100 100 101 101 100 100 100 100 100 100 100 100 100 100 99 100 103 106 105 102 101 102 101 98 98 100 100 100 100 100 101 102 103 103 104 106 106 105 105 104 103 102 103 103 103 103 102 102 102 102 101 101 101 100
100 100 100 100 100 100 100 100 101 102 102 101 101 102 102 103 104 105 103 100 100 102 102 101 100 100 100 100 100 101 101 100 100 100 101 101 100 100 101 101 101 100 99 100 100 100 99 100 104 106 105 104 105 103 100 100 101 102 101 101 101 99 98 100 102 104 106 106 105 105 105 104 104 105 105 103 103 103 103 102 101 100 100 100 100
100 101 101 100 100 100 100 100 101 102 102 104 105 105 104 103 103 103 102 101 101 102 102 101 100 100 100 101 103 103 102 100 100 100 101 100 100 100 101 101 101 100 100 100 100 100 100 100 100 103 105 105 105 106 103 101 102 102 101 101 100 97 95 97 101 103 104 106 105 105 105 105 104 104 104 104 104 104 104 103 103 102 101 102 102
100 100 100 100 100 101 101 102 102 101 101 103 105 106 104 103 102 102 101 100 102 103 101 100 100 100 100 101 104 105 102 100 100 101 101 101 101 100 100 100 100 100 100 100 100 100 101 100 99 101 102 101 102 106 106 102 100 101 100 100 101 98 93 93 97 100 102 104 105 105 104 104 103 103 103 104 104 104 104 105 104 104 103 104 103
100 101 101 101 102 102 103 103 104 104 103 102 103 104 104 103 102 101 100 100 102 103 101 99 100 101 100 100 103 104 102 100 100 100 101 102 102 100 98 99 100 100 100 100 100 100 101 100 99 100 101 99 101 105 106 102 100 100 97 97 102 102 94 89 90 95 99 102 103 104 104 103 102 101 102 102 103 104 104 104 105 104 104 104 104
Wind_Speed
24 21 18 15 18 26 36 41 34 23 22 24 24 25 26 26 28 28 29 29 28 28 29 30 30 30 29 29 28 28 28 28 26 26 27 28 29 30 30 30 32 34 35 35 34 32 32 33 34 33 31 31 33 32 32 33 33 33 32 32 31 30 28 21 14 13 15 19 22 19 18 19 20 21 21 23 23 23 24 25 25 24 22 22 21
24 21 16 16 23 32 38 38 30 23 24 26 26 27 27 27 28 29 29 29 28 28 29 30 30 29 29 28 27 27 27 27 27 26 28 30 31 30 29 30 31 32 33 34 34 33 33 34 35 34 32 32 33 33 33 33 32 33 32 31 30 30 29 25 19 14 12 17 22 22 21 23 23 24 25 28 28 27 26 27 25 23 22 22 21
24 19 16 21 28 34 38 35 27 25 26 27 26 27 27 27 28 29 29 29 28 28 29 29 29 28 28 27 26 26 26 26 27 27 28 28 29 28 28 28 29 29 29 31 32 33 34 35 36 34 31 32 33 33 33 33 32 33 33 32 31 30 29 29 25 18 14 16 20 21 21 23 25 25 27 29 29 27 26 26 24 23 22 21 22
22 17 18 24 30 36 38 33 27 27 26 25 25 26 27 28 28 29 29 29 29 29 28 27 27 27 26 26 26 26 27 27 27 27 26 27 29 31 31 30 30 31 31 32 31 31 33 35 35 33 31 31 33 33 33 33 32 32 32 32 31 30 29 29 28 25 20 17 18 21 21 21 24 25 25 26 27 26 26 25 23 23 23 22 22
20 18 21 27 32 36 34 27 25 27 27 26 27 27 29 29 28 27 28 28 28 28 28 27 26 26 26 27 28 28 28 27 28 28 28 29 31 32 32 31 31 33 35 36 36 34 32 32 32 32 32 32 33 32 32 32 32 32 32 31 30 29 28 28 28 27 24 18 15 18 20 20 22 23 23 24 25 25 25 25 24 23 23 22 21
20 19 23 28 33 33 28 23 25 28 27 26 27 28 28 28 27 26 26 27 28 28 27 26 27 28 28 29 29 29 28 28 28 29 29 30 30 31 32 33 33 34 34 35 36 35 34 34 34 31 31 31 31 30 31 32 32 32 31 30 29 28 27 27 26 26 26 22 18 19 20 20 20 21 21 23 24 24 24 23 24 23 22 21 20
20 19 23 29 31 28 25 25 26 27 26 25 26 27 27 26 27 27 27 27 28 28 28 28 29 29 30 30 29 29 29 29 29 29 29 29 30 32 33 34 35 36 36 37 37 36 37 39 39 37 35 34 32 32 31 31 32 32 32 30 29 28 27 26 25 24 25 22 20 20 20 20 21 20 20 22 24 25 23 19 20 21 20 19 19
20 19 23 29 28 24 26 27 26 25 26 26 27 27 26 27 27 27 28 28 28 28 29 31 31 31 31 31 30 30 30 30 30 30 31 32 33 36 37 38 39 40 41 41 39 38 39 40 40 39 39 38 36 35 33 32 31 31 31 30 29 28 27 25 24 23 22 20 19 18 16 17 20 20 19 19 20 20 20 19 19 19 19 18 18
20 19 23 28 26 24 27 28 25 26 27 27 28 27 27 28 28 29 30 30 30 31 32 33 33 34 34 33 33 33 33 33 32 32 34 35 36 37 38 39 39 39 40 40 38 37 38 38 38 37 37 35 34 35 36 35 33 30 29 29 29 28 26 24 23 20 18 18 18 15 13 14 17 18 18 18 18 17 18 20 20 20 19 19 18
21 20 24 28 27 26 29 28 27 28 30 29 29 29 29 30 31 33 33 32 33 34 34 34 34 35 36 36 36 36 35 35 35 34 34 36 36 37 36 34 33 33 34 35 35 34 34 34 34 35 36 35 34 36 37 37 38 35 32 31 30 29 26 23 22 20 17 16 16 14 12 12 16 18 18 19 20 19 18 18 19 19 17 15 16
21 22 25 28 29 29 30 31 31 32 32 32 31 32 33 34 34 35 35 35 36 35 35 35 35 35 36 37 37 37 37 37 35 35 36 35 36 36 35 34 33 34 35 34 34 33 32 32 32 33 35 35 35 36 36 37 38 38 36 35 34 33 29 25 23 22 20 17 17 17 14 13 17 20 20 19 19 20 20 20 19 18 14 10 8
22 24 25 27 29 30 31 32 33 33 34 34 34 35 36 36 36 37 37 37 37 36 35 35 36 36 36 37 38 38 39 38 36 36 36 34 34 35 36 36 36 35 35 34 33 32 31 31 31 32 34 35 35 35 35 35 36 36 35 35 35 35 34 31 28 25 23 20 18 19 19 18 19 22 22 20 20 20 21 21 20 19 16 12 8
24 25 25 27 30 31 32 33 34 35 35 35 36 36 36 37 37 37 37 37 36 36 35 36 37 37 37 38 40 40 41 40 37 35 35 34 34 35 36 37 37 35 34 33 33 31 31 31 30 30 32 34 34 33 33 33 33 33 33 31 32 33 34 35 33 31 30 27 24 23 25 24 23 24 25 23 22 21 20 20 21 21 19 16 15
24 25 26 28 31 33 34 34 35 36 36 36 36 36 36 37 37 36 36 36 35 35 36 37 38 38 38 40 42 42 42 40 37 35 36 35 35 34 35 35 34 33 31 31 31 30 30 30 28 27 28 31 32 31 30 30 30 30 30 28 28 29 29 30 31 32 33 33 30 28 29 29 27 26 26 25 24 23 22 22 23 23 22 20 19
25 25 27 30 33 34 34 34 35 37 37 36 37 37 37 37 37 37 36 35 35 36 36 37 38 40 41 41 42 42 41 39 38 38 37 36 35 34 34 34 34 33 32 31 30 29 29 28 28 26 26 28 30 30 29 29 29 29 29 28 27 27 27 27 27 27 28 28 27 26 27 28 27 27 27 26 25 27 27 26 25 23 22 20 18
25 26 29 31 33 34 34 35 36 37 37 36 37 37 37 37 37 37 36 36 36 36 36 36 38 40 42 41 40 41 42 41 40 40 39 38 36 34 33 32 33 32 31 30 28 26 27 27 26 25 25 26 28 29 28 28 29 28 27 27 27 28 29 30 29 26 25 24 23 22 23 24 24 25 27 27 27 28 27 24 22 21 18 14 12
25 27 29 32 33 34 34 35 36 36 36 36 37 37 36 37 38 36 36 37 37 36 37 37 37 39 40 40 39 40 43 43 40 40 41 40 38 35 31 30 30 30 28 28 26 25 25 25 25 23 23 24 26 27 28 27 28 28 27 26 26 27 28 30 30 26 25 25 26 26 25 25 24 24 27 27 28 28 25 21 20 20 15 8 7
25 28 30 32 33 34 34 34 35 35 35 34 35 36 36 37 37 36 35 36 37 37 37 37 38 38 39 40 40 39 40 42 40 39 41 41 40 37 32 28 27 27 26 25 25 24 23 23 22 22 22 23 24 26 28 28 27 27 27 26 25 25 27 29 29 26 24 24 25 27 27 27 28 27 27 27 27 26 25 24 24 22 16 10 8
27 29 31 32 33 34 34 34 34 34 34 34 33 34 35 36 36 36 35 35 36 37 36 36 38 39 39 40 40 37 38 41 41 40 40 41 42 39 32 26 24 24 23 23 23 22 22 22 22 21 21 23 24 25 27 28 26 25 27 26 23 24 28 29 28 27 26 25 25 25 26 27 27 24 23 24 26 27 27 27 26 24 20 16 13
29 31 32 33 34 34 34 34 33 33 34 34 34 34 34 35 36 37 36 36 36 36 36 36 38 40 40 40 39 38 37 39 41 40 39 41 42 40 33 25 22 22 22 22 21 21 21 21 22 23 22 23 24 25 26 27 26 25 27 26 24 26 30 29 27 27 28 27 26 25 25 26 27 25 20 19 21 26 28 27 26 27 25 20 16
31 32 33 34 35 35 34 33 34 34 33 33 33 33 33 34 35 36 37 37 36 37 37 37 37 39 40 39 39 39 38 38 39 38 38 39 42 42 36 27 23 23 23 22 22 22 22 22 22 24 23 23 23 24 25 26 26 25 26 27 28 29 28 26 27 28 27 26 25 24 23 23 25 27 25 21 19 22 28 29 27 28 27 22 18
31 32 33 34 34 34 34 33 33 34 33 32 32 33 33 34 35 35 35 36 36 37 37 36 35 37 38 38 39 39 38 38 37 36 37 39 42 44 41 31 24 22 21 21 22 23 23 24 24 25 24 23 23 24 24 25 25 25 25 28 30 29 26 25 27 26 24 24 23 22 21 20 21 24 26 26 22 20 25 30 30 28 28 26 22
30 32 33 34 34 33 33 34 33 33 32 31 31 32 33 34 34 34 33 34 35 36 36 35 33 33 35 38 39 38 37 37 36 35 37 40 43 46 44 34 24 22 21 20 21 21 22 24 25 25 24 23 24 25 25 25 25 24 23 26 28 29 27 25 25 25 24 22 20 19 18 19 20 22 25 27 27 23 21 23 26 27 27 27 26
30 32 33 34 34 34 33 34 33 32 31 30 29 30 32 33 34 33 32 32 31 32 33 32 30 29 32 36 38 38 37 36 36 36 37 39 44 46 42 36 29 23 20 20 20 20 21 23 24 24 24 23 24 25 25 25 25 24 23 24 25 27 26 25 24 24 23 20 18 17 17 18 20 22 26 28 29 27 23 19 18 20 20 21 21
31 33 34 34 35 35 34 33 32 31 30 29 29 30 31 32 32 32 32 31 30 29 30 29 28 28 30 31 33 36 37 37 37 38 38 40 43 42 39 38 37 30 23 23 23 21 21 23 23 24 24 24 24 24 24 24 24 23 23 24 23 23 22 21 23 23 21 19 18 17 17 19 20 21 24 26 26 26 25 22 19 19 19 19 19
32 32 33 34 34 34 34 33 32 31 30 29 29 29 29 30 31 30 30 30 29 27 27 28 29 29 29 28 30 35 36 35 37 39 41 42 41 38 37 39 39 36 27 23 24 22 21 20 19 20 21 21 21 22 22 22 22 21 21 21 21 20 19 18 19 21 20 20 19 19 19 19 19 19 19 21 24 26 25 24 22 21 21 21 20
31 32 33 34 34 32 31 32 32 31 31 31 30 29 28 29 29 29 28 29 28 27 27 28 28 27 26 26 29 33 33 32 34 37 41 42 38 35 37 37 37 38 30 19 19 21 19 18 17 16 17 18 17 17 18 20 21 20 19 19 18 17 18 19 19 20 21 21 21 21 20 18 17 18 19 21 23 25 25 23 21 21 21 21 19
29 31 32 32 32 31 30 30 30 30 31 31 30 29 29 28 29 28 27 26 27 28 27 28 27 26 26 26 27 28 29 31 33 36 40 40 35 34 35 35 35 37 29 14 11 13 12 12 13 13 13 14 13 12 12 13 16 17 19 20 19 18 17 18 19 19 21 22 22 19 17 16 16 18 20 21 22 22 22 21 20 21 21 19 17
28 30 31 31 31 31 30 30 29 30 31 31 30 30 28 26 27 29 28 25 26 29 30 29 28 27 26 25 24 24 25 30 34 37 39 38 34 33 33 32 34 35 26 11 8 10 9 9 11 11 12 13 12 11 11 10 11 13 16 18 20 19 17 17 18 19 19 21 20 18 16 17 17 18 19 19 19 20 20 21 20 19 19 18 15
29 29 29 30 30 30 29 29 30 30 30 30 31 32 31 27 24 25 27 27 27 29 30 30 29 28 27 26 26 24 25 31 36 38 38 36 34 32 31 29 30 31 24 15 14 16 13 10 10 8 7 7 7 7 7 7 8 10 14 17 19 19 18 17 17 17 18 19 20 19 18 18 17 16 18 19 19 19 20 20 19 18 19 17 14
29 30 30 30 30 29 28 29 30 30 30 30 29 30 32 32 30 27 26 26 28 30 31 30 30 30 29 29 30 29 30 32 35 36 35 35 33 31 29 27 27 27 24 23 24 22 18 15 15 15 13 10 9 9 7 7 7 5 4 9 12 14 16 16 16 16 18 19 19 19 19 18 17 16 17 18 18 19 20 19 18 19 19 17 14
28 30 30 30 29 28 27 27 28 29 30 30 29 27 28 30 33 34 32 28 26 27 28 29 31 32 32 32 32 33 33 33 34 34 34 34 33 30 27 25 26 25 24 27 26 21 18 16 15 17 17 16 15 16 15 14 14 13 11 10 7 4 7 11 13 15 16 17 18 19 19 19 19 19 18 17 18 18 18 18 19 19 18 16 14
28 29 30 29 29 28 27 27 27 28 28 28 28 27 25 24 27 33 36 35 31 28 26 26 28 30 31 32 32 33 34 34 33 32 32 32 33 31 26 23 23 25 27 27 23 19 19 18 16 17 19 19 21 22 20 17 16 16 17 17 16 13 9 7 7 9 11 12 14 17 19 20 20 19 18 18 18 18 17 17 18 18 16 14 13
28 29 29 28 27 27 27 27 27 27 27 28 26 25 25 24 24 26 29 31 33 34 33 31 30 29 29 30 31 31 32 33 31 30 29 30 32 31 26 24 25 28 28 26 21 19 20 19 18 21 24 24 25 25 22 19 18 17 17 16 16 15 15 14 13 12 9 7 8 11 14 17 19 19 18 17 17 17 17 16 17 16 14 13 11
28 29 29 27 26 27 27 27 27 27 27 27 26 24 25 25 25 23 23 23 25 28 32 34 33 31 28 28 29 29 30 30 30 28 28 28 30 30 29 28 27 26 26 25 21 19 20 20 20 22 24 25 25 24 21 20 19 18 17 16 14 13 13 14 15 15 13 12 12 10 10 11 14 16 17 16 16 15 15 16 16 15 14 14 13
29 30 30 28 27 26 27 26 26 26 26 25 25 25 25 25 24 23 23 22 23 23 26 30 32 30 27 27 28 28 28 29 29 27 26 26 28 29 28 25 23 22 22 23 22 19 19 21 21 21 21 22 22 22 20 20 19 17 15 14 13 12 11 11 11 11 10 11 10 9 9 9 9 10 12 12 12 11 11 12 12 13 13 13 12
29 30 30 29 27 26 26 26 26 26 25 24 24 25 25 24 24 23 22 22 23 23 25 28 29 29 29 31 30 28 27 27 26 25 24 24 26 27 25 22 21 21 20 21 22 20 20 21 21 21 21 21 21 20 20 19 17 16 14 12 11 11 10 10 9 8 7 7 7 6 6 5 5 6 6 7 7 7 7 8 8 8 9 9 9
28 29 29 28 27 26 25 26 26 26 25 23 23 24 24 24 23 22 22 22 23 23 24 25 25 25 27 31 31 28 27 27 26 25 25 25 25 26 25 23 22 21 20 21 22 20 19 20 21 21 21 21 20 20 19 18 17 15 13 11 9 8 9 9 8 7 7 6 5 4 3 2 3 3 3 4 5 6 7 7 7 8 8 8 9
30 30 29 28 27 25 24 25 26 26 25 24 23 23 23 23 23 22 22 23 23 23 23 23 22 23 25 28 29 29 27 26 26 26 25 24 25 25 25 24 23 21 21 22 22 21 20 20 21 21 21 21 21 20 19 18 17 14 12 10 8 7 8 8 8 8 6 5 4 3 2 1 1 2 3 4 5 6 7 8 8 9 9 10 10
31 31 30 28 26 25 25 25 25 24 23 23 23 23 22 22 22 22 22 22 22 22 22 22 22 23 24 25 26 26 25 23 23 24 22 22 23 24 23 24 24 22 21 21 22 22 21 19 19 20 21 21 21 20 19 18 17 14 12 10 9 8 8 7 7 6 5 4 3 2 2 1 1 3 4 4 5 6 7 8 8 8 9 9 10
31 30 29 28 26 26 26 25 25 24 24 23 23 22 22 21 21 22 22 21 21 22 22 22 22 23 23 22 23 23 22 21 22 22 20 20 21 22 22 23 24 23 22 21 21 21 21 20 19 19 20 21 21 20 19 17 16 14 12 11 10 9 8 7 7 6 5 4 3 2 1 0 1 2 3 3 4 5 6 7 8 8 9 9 9
30 29 29 28 26 25 25 26 26 25 25 24 23 22 21 21 21 21 22 22 21 21 21 22 23 23 22 21 21 22 21 20 21 21 19 19 20 20 21 23 24 23 22 21 21 20 21 20 19 18 18 19 20 20 19 18 16 13 12 11 10 9 8 7 7 6 5 4 3 1 1 0 1 2 3 4 5 5 6 7 8 8 8 8 9
29 28 28 27 26 25 25 25 26 25 24 23 22 22 21 21 21 21 22 22 21 21 21 22 23 24 23 21 21 21 21 21 20 20 19 19 19 21 22 23 23 22 21 20 20 19 19 19 19 18 17 16 17 18 18 18 16 14 12 11 10 9 9 8 7 6 5 5 4 2 1 0 1 1 2 3 4 5 5 6 7 7 8 8 9
28 27 27 27 26 25 25 25 24 24 24 23 23 22 21 21 21 21 21 21 21 20 20 21 22 23 23 23 22 21 21 21 20 20 20 19 19 21 23 23 23 22 21 20 20 19 18 17 18 18 17 16 15 14 15 16 16 15 14 12 11 11 10 10 9 8 7 5 4 3 1 0 0 1 2 2 3 4 5 5 6 7 7 8 9
27 27 27 26 26 25 25 24 23 24 24 24 23 23 22 21 21 21 21 20 21 21 21 21 21 21 22 22 21 20 20 21 20 20 20 20 20 21 22 23 22 22 21 20 20 19 18 17 17 17 17 17 16 14 13 13 13 14 14 13 12 12 11 10 10 9 7 5 4 3 2 2 1 0 1 2 3 3 5 5 6 7 7 8 9
27 26 26 26 26 25 25 24 23 23 23 23 23 23 23 22 21 21 20 20 20 20 21 22 22 21 21 20 20 20 20 20 20 20 20 20 20 20 22 22 22 21 20 20 19 18 17 17 16 15 16 17 17 15 13 12 11 11 12 12 12 11 11 9 8 8 7 6 5 4 3 2 2 1 1 2 2 3 4 5 5 6 7 7 8
27 26 25 25 25 25 24 24 23 22 22 22 22 23 23 22 21 20 20 20 20 20 21 22 22 22 21 20 20 20 20 19 19 20 20 20 20 20 21 22 21 20 20 20 20 18 17 17 16 15 14 15 16 16 15 12 11 10 10 11 11 11 11 9 8 7 6 6 5 5 4 3 2 2 1 1 2 3 3 4 4 4 5 5 6
26 25 25 25 25 24 24 24 22 22 22 22 23 23 23 22 22 21 21 21 21 21 22 22 23 22 21 20 20 20 19 19 19 20 19 19 19 19 20 21 20 19 19 20 20 19 17 16 17 16 14 14 15 15 14 13 11 10 10 11 11 11 11 10 9 7 5 5 5 5 4 4 3 2 1 0 1 2 2 3 3 3 4 5 5
25 25 25 25 25 24 24 24 23 23 22 22 23 23 23 23 22 22 21 21 21 21 22 22 23 22 22 21 21 20 19 19 19 20 19 19 18 19 20 20 20 19 18 19 19 19 18 16 16 16 15 15 15 14 12 12 11 11 11 11 12 12 11 10 9 8 6 4 3 3 3 4 4 3 2 1 0 0 0 1 2 2 3 4 5
25 24 24 25 25 25 25 25 24 23 23 22 22 23 23 22 22 23 22 22 22 22 22 23 22 22 22 22 21 20 19 19 19 19 19 18 17 18 19 20 19 18 17 17 18 19 18 16 16 16 16 15 15 13 11 11 11 11 11 11 11 12 11 10 9 8 7 5 3 2 2 3 3 3 3 2 2 1 1 1 1 1 2 3 4
25 24 24 25 25 25 25 24 24 23 23 22 22 22 22 22 23 23 23 23 22 23 23 23 23 22 23 22 21 20 19 18 18 19 19 18 17 17 18 19 19 18 17 17 17 18 18 17 17 16 16 16 15 13 12 12 13 13 11 9 9 11 12 11 10 9 8 6 5 3 1 1 2 2 2 2 2 2 1 1 1 1 1 2 3
Wind_Direction
348 345 345 340 335 337 338 341 343 337 331 333 331 329 328 327 327 327 326 326 324 322 319 318 317 316 314 313 312 311 310 309 308 306 303 301 300 297 294 291 285 280 278 274 270 268 265 265 265 263 263 263 263 261 257 251 245 240 237 235 234 232 232 232 243 261 254 245 248 247 241 242 243 244 250 252 249 248 253 260 268 270 272 277 282
346 344 341 334 334 337 338 340 341 335 331 332 331 330 328 326 326 325 323 323 322 320 318 317 317 316 314 312 311 311 310 308 307 305 303 301 300 298 295 292 287 281 279 276 273 270 267 264 264 264 263 263 262 260 256 249 242 238 235 232 232 231 229 230 238 252 253 243 243 245 241 239 243 247 252 257 257 255 257 260 263 265 268 275 280
344 342 333 331 334 335 337 341 340 334 331 330 328 329 327 324 325 324 322 321 321 320 318 317 317 315 313 311 309 309 308 307 306 304 302 300 299 297 295 292 287 282 279 277 275 270 267 265 264 264 263 261 261 259 255 249 241 236 234 231 231 231 228 228 234 243 251 247 242 241 240 237 241 246 250 255 258 258 258 259 261 264 268 274 279
343 337 326 328 331 334 338 340 338 334 331 326 324 324 324 324 324 323 321 320 319 318 317 315 314 312 311 309 307 306 305 303 302 301 300 298 297 296 295 291 287 285 284 283 282 275 267 262 262 263 262 261 260 258 254 248 240 235 233 231 229 230 229 228 232 237 246 250 242 239 239 238 239 243 248 251 254 255 256 258 260 264 269 274 278
340 330 324 328 332 336 338 336 331 331 329 326 325 324 324 323 322 320 319 317 316 316 316 315 313 311 309 308 305 303 302 301 299 297 296 296 294 293 292 289 286 285 283 283 282 280 273 266 261 260 258 258 258 256 251 245 238 234 232 230 229 229 229 230 231 235 240 244 242 240 240 238 239 243 246 246 247 249 252 255 258 263 269 271 274
337 327 323 330 335 336 335 330 328 328 326 325 325 323 323 321 319 318 318 316 315 314 313 313 312 310 308 307 305 302 301 299 297 295 293 292 291 290 289 288 286 283 280 279 277 275 273 272 269 264 258 255 254 253 250 243 237 233 230 228 228 228 228 230 230 232 236 240 241 241 239 237 238 242 244 242 242 244 247 252 257 260 263 267 272
333 325 324 331 334 333 331 329 327 326 323 322 321 321 320 318 317 318 316 315 313 312 311 310 310 309 307 306 305 302 300 298 296 294 292 290 288 288 287 286 285 284 281 279 276 272 270 269 268 266 263 260 259 255 249 242 235 232 229 227 226 225 227 229 228 229 233 236 240 239 237 238 239 241 244 244 242 241 242 248 255 257 258 262 270
330 323 324 330 331 329 330 329 326 324 322 321 320 319 319 317 316 316 315 314 311 310 310 310 309 308 306 305 304 302 300 298 296 294 292 290 288 287 286 285 284 283 281 279 276 274 271 267 263 261 260 259 258 253 247 240 234 231 229 226 224 224 225 225 225 226 228 232 237 236 231 232 236 239 243 239 233 234 236 240 249 255 257 261 268
330 322 322 328 329 328 329 329 325 323 322 321 320 319 318 317 315 315 315 314 312 312 312 311 310 310 309 307 306 305 302 299 297 295 292 290 288 285 284 283 281 279 279 278 277 275 272 266 261 257 256 254 253 250 247 241 235 230 227 224 222 222 223 222 222 221 222 228 233 230 223 225 228 231 235 230 225 229 233 235 243 252 257 262 266
327 322 321 326 327 327 328 327 325 324 323 322 321 319 319 318 317 317 317 316 316 316 315 314 313 312 311 311 309 307 305 302 299 296 292 290 289 286 285 283 281 280 280 279 277 275 272 267 261 258 256 253 250 251 250 246 240 235 230 226 222 220 219 219 220 219 218 224 226 224 224 228 226 228 234 234 231 231 230 230 237 246 253 260 265
323 322 322 324 326 327 327 327 326 325 324 324 323 322 321 321 320 320 320 320 320 319 318 316 315 314 313 311 310 308 306 304 301 297 295 293 291 289 286 285 284 282 280 277 275 274 273 268 263 259 257 253 250 250 252 251 246 240 235 230 226 224 221 219 218 218 219 223 225 223 224 230 230 231 235 237 232 229 228 229 231 236 238 242 257
323 322 322 323 325 326 326 326 325 325 325 325 324 325 324 323 323 323 322 323 323 321 319 316 315 315 314 311 309 308 307 305 303 300 298 296 294 292 289 289 289 286 283 283 283 282 280 274 265 258 255 253 249 247 248 251 251 247 240 233 228 227 226 224 223 220 218 220 222 223 225 229 232 231 232 232 230 228 229 229 227 228 229 226 229
322 321 321 322 324 326 327 327 326 325 326 326 326 326 326 324 324 324 323 323 322 319 318 317 316 315 314 312 310 309 308 307 304 301 301 300 298 296 293 292 291 289 289 290 290 289 288 282 270 257 252 250 246 242 241 244 248 248 245 238 232 229 228 226 225 224 223 222 221 222 225 226 229 231 231 229 229 226 223 223 224 225 227 227 228
320 320 321 323 325 327 327 327 326 325 326 326 326 326 325 325 325 324 323 322 320 319 318 317 316 315 314 312 311 310 310 308 304 303 303 302 300 297 295 294 294 294 295 294 293 293 292 287 275 259 249 245 241 237 235 236 239 242 242 241 239 238 236 232 228 227 226 223 221 223 227 228 229 233 234 230 228 225 221 222 223 225 229 233 236
320 321 322 324 326 327 327 326 325 325 326 326 326 326 325 325 324 324 323 321 319 318 317 316 316 315 314 314 312 310 310 308 305 305 304 302 301 300 298 297 297 296 295 292 290 293 295 293 281 264 249 241 238 235 231 230 231 233 234 236 238 240 242 243 240 235 231 227 224 225 229 233 234 237 238 233 230 230 230 231 233 232 233 234 236
321 322 322 323 325 326 326 326 324 324 325 325 325 326 325 324 324 324 322 320 319 318 317 316 315 314 314 314 311 309 310 309 307 307 309 307 304 302 299 296 295 292 291 290 289 291 296 296 285 268 250 240 237 235 232 228 226 227 228 231 233 236 239 243 245 245 243 240 237 235 237 239 240 242 241 237 237 235 230 231 234 229 223 223 228
320 321 321 322 324 325 325 324 323 323 324 325 325 325 324 323 323 324 322 320 319 318 316 316 315 314 313 313 311 309 310 311 309 308 312 313 309 303 296 291 289 287 286 287 287 287 291 293 288 272 253 241 237 237 236 229 222 222 224 225 229 232 237 241 243 245 249 249 247 245 243 241 241 242 237 233 237 234 220 214 219 212 203 206 225
320 321 321 321 322 323 323 323 323 323 323 323 323 323 323 322 322 323 321 318 317 317 316 315 314 314 313 312 311 309 308 311 311 308 312 316 313 305 297 289 284 282 282 282 282 282 284 286 287 276 258 245 240 240 242 235 223 216 217 220 223 227 232 238 240 242 246 249 249 248 246 242 240 243 239 230 227 225 216 212 212 204 195 203 215
321 321 320 320 321 322 323 323 323 322 322 322 322 322 322 322 321 321 320 318 316 316 316 316 315 315 316 315 314 312 309 312 314 311 311 315 314 309 301 290 280 276 278 278 276 277 278 279 281 277 264 252 243 240 242 240 228 216 214 214 216 222 230 234 234 236 239 242 244 246 247 243 239 241 244 233 221 217 217 218 213 203 200 207 205
322 321 321 321 322 323 324 324 323 323 322 322 323 322 321 322 322 321 321 319 318 317 318 317 316 317 319 318 317 316 313 314 316 313 311 313 314 313 308 296 281 274 274 275 273 272 272 273 273 272 269 262 250 241 239 240 233 221 213 210 213 223 230 231 230 233 236 238 241 245 246 245 240 239 242 239 226 216 215 218 217 211 208 207 200
323 323 322 322 322 323 324 324 323 323 323 323 323 322 323 323 322 321 321 320 320 319 319 319 318 318 320 320 319 318 317 316 317 316 313 314 316 316 312 302 285 274 268 267 267 266 264 264 265 266 267 267 261 252 245 242 238 226 214 213 221 228 228 227 229 231 233 236 239 242 244 243 240 237 238 243 240 222 213 214 219 217 214 210 203
324 323 322 321 321 323 324 324 324 324 324 325 324 322 323 324 322 322 322 321 320 320 319 320 319 318 320 322 320 320 321 321 320 318 317 317 318 319 318 310 291 275 267 261 259 257 257 257 259 261 261 260 262 260 255 251 246 235 222 219 226 227 222 222 228 227 226 230 232 233 236 237 234 232 231 236 240 229 212 211 217 219 220 223 219
323 322 321 321 322 323 323 324 325 325 325 326 324 321 323 324 323 323 323 321 320 320 320 321 321 319 321 322 322 322 324 324 323 321 320 319 320 323 327 326 307 281 270 266 261 257 255 255 255 256 255 254 254 255 255 255 254 248 238 230 228 226 219 217 220 219 218 222 223 223 228 229 228 226 224 227 233 231 217 209 214 219 223 227 229
323 321 322 322 322 323 324 324 325 325 326 326 324 322 323 324 323 324 324 322 319 318 319 321 321 319 320 320 321 323 325 325 324 324 324 323 322 324 333 340 332 305 277 266 265 261 256 255 253 252 252 252 252 250 248 249 250 251 248 243 239 234 225 215 210 210 211 212 214 218 223 224 224 224 222 224 227 230 229 223 220 224 226 228 230
323 322 322 322 323 324 325 325 326 327 327 327 325 323 323 324 323 322 323 322 319 316 317 320 321 319 317 317 319 322 325 326 327 327 328 326 324 327 335 341 338 324 292 266 262 262 258 257 256 254 251 249 249 250 249 249 248 246 245 245 244 239 232 219 206 202 204 206 209 216 220 222 225 226 224 223 222 225 230 232 231 230 230 230 232
322 322 322 322 323 324 325 326 327 327 327 327 325 324 324 323 321 320 322 320 317 317 318 319 320 318 317 319 322 322 324 327 328 330 331 328 328 334 339 338 335 332 313 276 259 260 262 265 268 265 259 255 251 249 250 250 251 250 245 246 247 240 233 224 206 197 200 206 210 214 218 221 225 225 219 214 215 220 225 228 229 227 224 222 224
321 321 321 322 323 325 325 325 325 326 326 327 326 325 325 324 320 319 320 319 318 319 319 318 318 318 318 322 323 321 323 327 329 330 330 329 333 342 343 338 335 336 328 295 264 265 269 272 275 269 263 262 258 254 251 248 248 249 245 246 249 243 232 224 213 205 206 209 212 216 218 216 214 210 204 201 206 215 221 223 222 221 217 214 214
320 320 321 322 323 324 324 324 324 324 324 325 324 324 324 324 320 318 318 319 319 318 316 315 317 319 321 321 321 322 326 329 329 327 327 331 341 348 344 341 345 345 339 319 290 290 285 280 279 270 267 273 272 267 263 252 245 243 238 236 240 241 234 226 218 213 213 214 214 214 212 205 200 199 198 197 201 208 213 214 213 211 206 201 201
321 320 322 323 323 324 324 323 323 322 322 323 323 323 323 322 319 317 318 320 317 314 313 314 318 324 327 325 324 327 328 326 325 326 329 337 348 350 344 346 356 358 355 349 343 339 318 290 283 272 264 270 274 273 273 268 255 246 237 231 230 231 230 227 220 213 212 213 211 206 200 197 198 197 194 195 201 206 205 203 202 199 192 188 192
321 321 323 322 322 323 322 321 322 322 321 322 323 323 324 324 321 317 319 321 320 317 318 321 326 334 337 335 331 329 327 326 327 331 337 345 350 349 347 352 4 9 10 19 27 18 3 343 331 319 288 275 285 292 290 292 288 266 245 232 225 221 222 224 222 217 212 209 205 201 197 194 194 193 191 193 198 200 198 196 193 186 180 181 189
320 320 321 321 321 321 319 319 320 321 321 322 322 322 323 325 326 325 324 324 324 325 328 331 335 340 342 339 337 334 333 334 334 336 343 351 353 350 349 356 9 16 24 38 40 28 17 13 9 6 7 13 16 19 23 25 14 345 250 219 213 211 213 218 220 217 213 209 204 199 196 193 191 189 189 189 190 190 190 190 189 183 180 183 187
318 318 318 319 319 319 318 318 319 320 321 322 323 322 321 323 326 328 330 331 329 329 332 334 337 341 343 342 341 340 339 339 340 342 348 355 357 354 353 360 10 18 28 39 37 23 12 13 12 8 12 16 18 26 37 44 43 49 66 76 84 133 184 205 213 211 210 209 204 196 192 191 191 190 188 184 180 180 183 185 185 184 184 187 189
317 316 317 318 318 317 317 318 319 319 320 320 320 321 321 321 323 324 328 331 332 333 335 336 338 342 343 342 343 343 342 343 345 347 350 356 1 0 357 1 12 21 29 33 28 15 11 12 8 8 11 13 16 23 32 36 37 46 57 60 59 67 85 119 162 182 195 202 200 193 190 189 189 188 186 182 178 175 177 180 182 182 183 187 188
318 317 317 317 316 316 317 318 318 318 319 318 317 317 318 320 320 320 322 327 331 334 335 338 341 343 342 343 344 344 343 346 347 348 351 359 4 4 3 8 17 24 28 28 21 14 12 9 6 9 11 13 16 20 23 25 27 33 43 49 54 60 66 75 87 96 110 134 153 167 176 181 182 181 178 175 174 174 176 177 177 177 179 184 186
320 319 319 319 317 316 317 318 318 318 317 317 316 315 316 318 319 319 319 321 324 326 328 332 337 340 341 342 344 345 345 347 347 348 355 3 6 7 11 15 14 15 19 19 16 13 11 7 6 8 9 11 14 15 16 18 20 24 30 35 41 50 56 62 68 72 79 88 94 106 126 146 159 164 164 163 164 168 172 174 175 177 179 182 185
320 320 320 320 319 318 317 317 317 317 317 315 314 314 316 317 317 317 318 318 319 319 321 326 331 336 339 342 346 346 346 347 348 350 357 4 7 11 15 14 8 6 9 10 8 7 6 6 6 6 7 9 11 11 12 13 14 17 20 22 25 34 44 53 57 59 67 74 77 84 94 104 119 135 144 149 154 161 167 170 174 178 180 181 183
320 319 319 320 320 318 317 316 317 318 317 314 314 315 316 317 317 317 317 319 320 320 322 325 330 335 339 344 347 347 345 346 349 353 358 2 8 12 14 11 7 7 6 5 4 3 2 3 4 4 5 7 8 10 12 11 10 11 12 14 19 23 26 34 45 51 57 63 68 75 85 95 107 122 136 147 155 167 177 181 185 188 189 191 192
319 318 319 319 319 316 315 316 318 320 319 316 316 317 317 317 318 318 318 319 320 320 322 326 330 333 336 340 344 344 344 346 351 355 358 1 5 8 9 8 7 7 5 2 2 1 359 0 1 2 4 6 8 11 12 11 10 9 7 8 16 18 13 14 22 31 40 50 57 65 81 108 128 145 165 175 182 193 201 205 209 207 204 206 207
320 319 319 320 318 315 314 315 317 318 319 317 317 317 317 317 317 318 319 320 320 320 322 325 328 331 334 337 340 343 345 348 350 351 353 356 360 2 3 3 2 2 3 2 1 360 359 359 1 2 3 5 7 11 14 14 14 13 11 11 17 23 20 16 13 15 24 33 39 49 69 108 161 194 204 207 211 215 216 218 219 216 211 210 209
320 319 318 319 318 315 314 314 315 316 317 316 315 316 315 315 315 317 318 319 318 319 321 322 323 328 333 336 340 343 345 345 345 345 347 352 354 356 358 360 358 356 356 358 359 359 358 357 359 2 4 5 6 10 14 16 18 19 22 25 29 31 33 30 23 21 26 29 31 42 64 100 169 197 206 210 215 219 219 219 222 221 217 214 211
319 317 316 317 316 315 313 313 314 315 315 313 313 313 313 313 314 316 317 317 317 317 318 319 320 326 331 335 339 343 344 342 341 342 345 349 352 352 353 355 354 353 353 354 356 357 358 358 358 0 4 6 8 10 13 18 21 23 25 28 30 31 32 34 34 33 36 40 42 45 52 119 201 207 207 207 211 216 216 216 219 221 219 216 213
318 315 314 314 314 313 311 311 312 314 314 313 312 312 312 312 314 315 315 315 315 316 316 317 320 325 329 334 338 342 343 342 341 342 343 346 350 351 350 350 351 351 351 352 353 355 357 358 359 0 3 8 11 12 13 15 19 24 27 27 28 28 27 27 28 27 26 24 20 12 16 320 234 222 212 211 215 218 218 218 221 221 219 215 211
316 313 312 311 311 310 309 310 311 312 312 312 312 311 311 311 312 313 314 314 314 315 316 317 320 324 327 331 336 340 341 342 342 342 341 343 347 348 348 348 349 350 351 353 354 356 357 359 1 4 6 10 13 16 17 17 19 24 29 29 28 27 27 24 23 22 21 19 13 1 330 258 250 225 199 202 210 212 217 222 221 218 218 216 212
315 313 311 310 310 309 309 309 310 310 311 311 310 310 311 311 312 313 314 313 314 315 316 318 321 323 325 329 334 337 338 339 340 340 340 341 343 345 347 347 348 349 352 353 354 355 357 359 2 6 9 11 14 17 19 19 20 23 26 27 28 29 28 25 21 17 13 10 11 12 21 23 263 204 183 191 201 204 211 217 213 210 211 210 208
315 313 311 310 309 309 310 310 310 310 311 311 310 310 311 312 312 313 314 313 313 315 316 319 321 323 324 327 330 333 334 335 336 337 338 339 341 342 345 347 347 348 351 352 353 355 358 358 0 4 6 8 9 10 12 15 17 17 17 19 22 23 21 17 15 12 7 2 2 6 13 26 34 54 192 202 206 206 208 211 210 209 209 209 209
316 313 311 310 310 309 310 310 311 310 310 310 309 310 311 312 313 313 313 313 313 314 315 318 321 322 323 325 327 329 330 331 332 334 336 338 339 341 343 346 347 348 350 351 353 355 357 358 360 2 2 1 2 4 4 5 7 7 7 7 9 11 11 9 7 7 8 12 15 11 360 356 357 347 284 223 211 203 197 201 206 208 209 212 215
317 314 312 311 311 310 310 311 311 310 310 310 309 309 310 311 312 312 312 313 313 313 315 317 319 321 323 324 325 327 328 328 328 330 333 336 339 341 343 345 346 347 349 351 354 356 357 358 358 359 358 357 357 359 360 360 359 357 357 357 357 357 358 359 359 0 6 12 15 14 11 10 9 357 323 227 212 207 198 193 196 201 202 205 211
317 316 314 313 312 311 311 312 311 310 309 309 309 309 309 310 311 311 311 312 313 313 315 317 318 320 321 323 323 325 326 326 326 328 331 335 339 341 342 344 346 347 348 350 353 356 359 358 357 358 358 355 352 354 358 2 1 356 354 355 355 354 352 350 349 351 358 6 10 12 17 25 31 30 24 291 210 210 208 202 197 197 197 198 200
318 316 314 314 313 312 312 312 310 309 309 309 308 308 309 309 310 311 311 312 313 313 314 316 317 318 320 321 323 325 325 325 326 328 329 332 336 340 341 344 346 347 348 350 352 356 359 360 359 359 359 357 355 356 360 4 5 2 359 356 354 352 351 349 346 344 345 352 2 10 17 24 31 35 32 18 358 190 202 207 197 195 199 198 197
319 317 315 314 313 312 312 312 310 309 310 309 307 308 309 309 309 310 311 312 312 314 315 316 317 317 318 320 322 323 324 324 326 327 327 329 332 335 338 342 347 348 348 348 351 355 358 360 360 359 359 360 1 0 360 0 360 356 352 348 346 345 347 350 349 343 338 338 344 358 17 25 25 27 31 25 11 6 24 46 103 157 180 191 194
319 318 316 314 313 313 312 312 311 310 311 310 308 308 308 308 308 310 311 311 311 313 315 316 316 317 318 319 320 321 321 322 324 325 326 328 329 329 332 339 345 347 346 348 350 352 355 357 358 358 358 359 1 2 5 3 356 347 340 338 338 338 341 346 349 345 339 335 332 330 347 25 26 21 25 27 22 20 24 37 60 94 129 165 188